Location: Austin
(30.3000°N, 97.7500°W)
Time: 22:59:51
(UTC-05:00)

Lacrosse 5 rocket - Pass Details

Date: 08 April 2026
Orbit: 390 x 477 km, 57.0° (Epoch: 20 April)

Event Time Altitude Azimuth Distance (km) Brightness Sun altitude
Rises 21:31:28 0° 218° (SW) 2,320 4.7 -21.0°
Reaches altitude 10° 21:33:33 10° 220° (SW) 1,450 3.7 -21.4°
Enters shadow 21:35:16 29° 223° (SW) 768 2.2 -21.7°
